Probability
6 6 10 19 16 0 0 0 0 0 3 3 6 13 13 13 10 23 32 29 32 32 52 68 71 74 71 71 71 68 65 68 71 71 77 77 84 81 77 68 68 71 68 58 58 58 55 52 52
3 3 13 13 3 0 0 0 0 3 3 0 0 0 6 10 23 29 32 29 35 32 52 58 71 71 71 68 65 68 65 68 68 71 81 81 77 74 71 71 68 65 68 65 55 52 48 58 58
3 3 6 0 0 0 0 0 0 0 0 0 0 3 10 19 26 32 35 29 32 32 52 74 71 74 74 71 65 68 68 68 68 71 74 71 77 71 74 71 68 68 61 52 55 55 52 48 52
3 3 0 0 3 0 0 0 0 0 0 0 3 6 13 26 32 32 32 32 29 29 42 65 74 71 77 77 74 68 71 65 65 65 68 68 65 68 68 68 65 68 61 52 52 58 55 55 52
3 3 0 3 3 0 0 0 0 0 0 0 6 6 23 35 35 35 39 32 23 29 42 55 71 77 81 74 71 65 65 65 68 61 65 68 68 68 68 65 61 65 61 48 48 55 61 48 45
3 0 0 0 0 0 0 0 0 0 3 6 6 6 23 39 42 39 39 39 32 39 45 61 74 74 77 65 71 65 58 68 68 61 61 68 71 65 65 68 65 55 52 45 45 45 42 42 45
0 0 0 0 0 0 0 0 3 0 3 6 6 10 26 35 45 45 39 45 42 45 48 52 58 65 65 68 71 65 65 74 71 61 61 61 58 58 61 58 58 52 55 55 45 42 39 39 39
0 0 0 0 0 3 3 3 3 3 6 13 10 13 16 35 52 48 45 48 48 52 52 55 58 52 52 61 61 58 61 68 65 58 58 55 55 55 52 55 52 58 52 48 45 42 35 35 35
0 0 0 0 0 3 3 3 6 10 10 13 10 16 26 45 48 48 48 52 52 52 52 48 58 55 48 45 52 52 58 68 58 58 58 58 45 39 45 48 52 55 52 52 48 45 35 32 29
0 0 0 0 0 3 3 3 3 6 3 6 10 26 32 48 48 45 45 48 45 45 48 52 58 52 48 45 45 48 45 58 58 61 55 61 58 52 39 48 55 48 45 42 42 32 39 23 32
0 0 0 0 0 0 3 3 3 3 10 6 13 23 35 42 45 42 42 42 42 45 45 45 45 48 48 52 45 48 48 55 65 58 58 61 55 48 45 48 48 55 42 32 35 32 23 26 35
0 0 0 0 0 0 0 3 0 3 3 6 13 23 32 39 42 42 35 39 39 42 48 45 55 55 42 48 52 55 55 58 55 58 55 58 58 55 55 55 48 48 45 42 39 29 19 23 29
0 0 0 0 0 0 0 0 0 3 6 13 23 26 26 29 39 35 35 35 42 45 55 52 55 61 61 58 52 48 55 48 48 48 42 52 55 48 39 48 52 42 39 42 32 23 23 23 26
0 0 0 0 0 0 0 0 0 6 6 16 16 29 26 26 32 32 39 42 42 45 52 48 52 61 65 65 61 52 42 55 39 42 42 45 45 48 42 42 39 39 39 32 26 26 32 26 29
0 0 0 0 0 0 0 0 0 6 6 19 26 32 29 29 29 32 42 45 42 55 52 58 55 61 65 55 39 35 39 29 48 45 45 48 45 52 45 45 39 35 35 29 26 26 35 39 29
0 0 0 0 0 0 0 3 0 3 6 19 26 29 29 35 35 35 45 45 48 45 65 58 42 52 65 58 58 42 39 39 42 48 52 45 45 48 52 45 35 42 39 35 35 29 23 23 26
0 0 0 0 0 0 0 3 0 3 10 19 29 26 32 39 39 39 42 48 45 52 65 61 58 52 55 58 58 48 45 42 45 45 45 55 52 48 42 39 42 45 35 32 26 26 26 26 26
0 0 0 0 0 0 3 3 3 3 6 19 23 29 35 35 45 39 39 48 48 55 65 68 65 61 55 58 58 58 52 42 45 55 55 48 45 35 32 39 52 39 35 32 35 35 39 29 29
0 0 0 0 0 0 3 3 3 10 10 10 23 35 35 39 42 45 39 45 48 58 58 68 68 61 55 55 58 55 48 45 45 48 48 45 42 45 45 23 42 39 39 35 32 35 32 32 26
0 0 0 0 0 0 3 3 3 10 13 16 19 39 42 39 39 45 48 55 45 61 65 65 65 65 68 61 61 61 61 48 48 45 48 42 39 42 35 42 35 29 45 39 39 35 29 26 32
0 0 0 0 0 3 3 3 6 6 10 16 16 29 35 39 39 45 52 52 48 52 58 55 58 61 65 61 52 52 58 48 42 42 45 48 45 42 42 35 35 35 32 35 42 39 35 35 29
0 0 0 0 0 0 0 0 6 10 10 16 19 26 39 39 42 52 58 61 48 52 48 52 61 61 65 61 58 48 52 52 48 48 48 48 48 39 35 39 39 39 35 39 35 35 35 32 32
0 0 0 0 0 0 0 0 3 13 10 19 23 23 26 32 39 48 48 58 55 52 45 48 55 58 61 61 58 61 52 52 45 48 48 48 45 42 42 45 39 39 39 42 39 35 39 29 26
0 0 0 0 0 0 0 0 0 6 16 13 16 26 26 29 32 45 48 52 55 52 48 45 58 61 58 58 55 55 58 55 52 48 45 45 45 42 42 39 45 39 39 42 39 39 32 29 29
0 0 0 0 0 0 0 0 3 10 10 13 13 26 32 32 39 42 45 48 52 55 48 48 52 58 55 55 58 55 55 55 48 45 45 48 39 39 42 35 42 35 39 39 39 39 32 29 26
0 0 0 0 0 0 0 0 3 13 16 16 19 23 26 39 39 39 42 42 42 45 45 52 52 55 55 55 55 52 52 45 45 48 42 42 42 42 39 42 39 39 35 29 39 29 29 29 26
0 0 0 0 0 0 0 0 13 16 19 23 23 23 26 32 42 45 45 48 52 52 48 48 48 52 55 55 52 52 48 45 45 48 48 42 45 39 39 39 39 35 35 29 39 29 35 32 23
0 0 0 0 0 0 0 0 3 19 16 29 29 23 29 32 35 42 45 48 52 52 48 45 52 48 48 52 45 39 42 42 42 42 45 45 42 39 39 35 35 32 32 35 35 29 35 32 29
0 0 0 0 0 0 0 0 10 16 19 26 26 35 35 26 35 42 39 45 48 52 52 45 48 42 39 39 39 32 35 39 39 42 39 42 42 35 32 35 35 29 32 29 29 32 32 32 32
0 0 0 0 0 0 0 3 10 16 23 26 26 26 32 29 32 35 35 32 39 32 42 45 45 39 42 35 32 35 35 32 35 39 35 42 42 35 32 32 35 26 26 23 23 26 29 29 29
Height
5901 5901 5902 5903 5905 5907 5906 5904 5903 5903 5902 5901 5901 5899 5898 5898 5897 5898 5894 5892 5891 5889 5887 5886 5885 5884 5883 5882 5881 5880 5880 5879 5879 5878 5878 5878 5878 5877 5877 5877 5877 5877 5876 5876 5876 5876 5877 5877 5876
5900 5901 5902 5903 5905 5907 5905 5903 5903 5902 5902 5901 5900 5899 5898 5897 5896 5895 5893 5892 5891 5889 5888 5886 5885 5884 5883 5882 5881 5881 5880 5880 5879 5878 5878 5878 5878 5877 5877 5877 5876 5876 5876 5876 5876 5876 5876 5876 5876
5899 5900 5902 5903 5904 5905 5904 5902 5902 5901 5900 5900 5899 5898 5898 5897 5895 5894 5893 5892 5891 5889 5888 5886 5885 5884 5883 5882 5881 5881 5880 5880 5879 5879 5878 5878 5877 5877 5877 5876 5876 5876 5876 5876 5876 5876 5876 5876 5876
5898 5899 5901 5903 5903 5902 5902 5901 5901 5900 5900 5899 5899 5898 5897 5896 5895 5894 5893 5891 5890 5889 5888 5887 5886 5885 5884 5882 5881 5881 5880 5880 5879 5879 5878 5878 5877 5877 5876 5876 5876 5876 5876 5876 5876 5876 5876 5875 5876
5896 5898 5900 5901 5901 5901 5900 5900 5900 5900 5899 5898 5898 5898 5896 5895 5894 5893 5892 5891 5890 5889 5888 5887 5886 5885 5884 5882 5881 5881 5880 5879 5879 5878 5877 5877 5877 5876 5876 5876 5875 5875 5875 5875 5875 5875 5875 5875 5875
5894 5897 5899 5900 5899 5899 5899 5899 5899 5899 5898 5898 5897 5897 5896 5895 5894 5893 5892 5891 5890 5889 5888 5886 5886 5885 5884 5883 5882 5881 5880 5879 5878 5878 5877 5877 5876 5876 5875 5875 5875 5875 5875 5875 5875 5875 5875 5875 5875
5893 5894 5896 5897 5897 5897 5897 5897 5897 5897 5897 5897 5896 5896 5895 5894 5893 5892 5891 5890 5889 5888 5887 5886 5885 5884 5883 5882 5881 5881 5880 5879 5878 5877 5876 5876 5875 5875 5874 5874 5874 5874 5874 5874 5874 5874 5874 5874 5874
5889 5892 5893 5894 5895 5895 5895 5895 5896 5896 5896 5896 5895 5895 5894 5893 5892 5892 5890 5889 5888 5888 5886 5885 5884 5883 5882 5881 5881 5880 5879 5878 5877 5876 5876 5875 5875 5874 5874 5874 5873 5873 5873 5873 5873 5872 5873 5873 5874
5886 5890 5891 5892 5892 5892 5893 5893 5894 5894 5894 5894 5894 5893 5893 5892 5891 5891 5890 5889 5888 5887 5885 5884 5883 5882 5881 5880 5880 5879 5878 5877 5876 5875 5875 5874 5874 5874 5873 5873 5873 5872 5872 5872 5872 5872 5872 5872 5873
5883 5886 5888 5888 5889 5889 5890 5891 5891 5892 5892 5892 5892 5891 5891 5890 5890 5889 5888 5887 5886 5885 5884 5883 5882 5881 5880 5879 5878 5878 5877 5876 5875 5875 5874 5873 5873 5873 5872 5872 5872 5871 5871 5871 5871 5871 5871 5871 5872
5879 5882 5883 5884 5885 5886 5887 5888 5889 5889 5890 5890 5890 5889 5889 5889 5888 5887 5887 5886 5885 5884 5883 5882 5881 5880 5879 5878 5877 5877 5876 5875 5874 5874 5873 5872 5872 5870 5871 5871 5871 5871 5870 5870 5870 5870 5870 5870 5871
5876 5878 5879 5880 5882 5883 5884 5885 5886 5887 5888 5887 5887 5887 5887 5886 5886 5886 5885 5884 5884 5883 5881 5880 5879 5878 5877 5876 5876 5875 5874 5874 5873 5872 5872 5871 5870 5870 5869 5870 5870 5870 5870 5869 5869 5869 5869 5870 5870
5872 5873 5875 5876 5878 5880 5881 5882 5883 5884 5884 5885 5884 5884 5884 5884 5884 5883 5883 5882 5881 5881 5879 5878 5877 5877 5876 5875 5874 5873 5873 5872 5871 5871 5870 5870 5869 5869 5868 5868 5869 5868 5868 5868 5868 5868 5868 5869 5869
5868 5869 5871 5872 5874 5876 5877 5879 5880 5881 5881 5882 5882 5882 5882 5882 5881 5881 5880 5879 5879 5878 5877 5876 5875 5874 5874 5873 5872 5871 5871 5870 5870 5869 5869 5868 5868 5868 5867 5867 5868 5867 5867 5867 5867 5867 5867 5868 5868
5863 5865 5867 5868 5870 5872 5874 5876 5877 5877 5877 5878 5879 5879 5879 5879 5878 5878 5877 5876 5876 5875 5874 5873 5872 5872 5871 5871 5870 5869 5869 5868 5867 5867 5867 5867 5867 5867 5866 5866 5866 5866 5866 5866 5866 5866 5866 5867 5867
5859 5861 5863 5865 5865 5867 5871 5873 5873 5873 5873 5874 5875 5875 5875 5875 5875 5874 5873 5873 5872 5872 5871 5870 5870 5869 5869 5868 5868 5867 5866 5865 5865 5865 5865 5865 5866 5865 5865 5865 5865 5865 5865 5865 5865 5865 5865 5865 5865
5854 5857 5859 5861 5861 5863 5865 5868 5868 5868 5869 5870 5871 5871 5871 5871 5871 5870 5870 5869 5869 5868 5868 5867 5866 5866 5866 5865 5865 5864 5864 5863 5863 5863 5863 5863 5864 5864 5863 5863 5863 5863 5863 5863 5863 5863 5864 5864 5864
5851 5853 5855 5856 5857 5859 5860 5863 5864 5864 5865 5866 5867 5867 5867 5867 5867 5866 5866 5865 5865 5864 5864 5864 5863 5863 5863 5862 5862 5861 5861 5861 5861 5861 5861 5861 5861 5861 5861 5861 5861 5861 5862 5861 5862 5862 5862 5862 5862
5845 5848 5850 5851 5852 5854 5856 5858 5859 5859 5861 5862 5862 5862 5863 5863 5862 5862 5862 5862 5861 5861 5861 5861 5860 5860 5859 5859 5859 5858 5858 5858 5858 5858 5859 5859 5859 5859 5859 5859 5859 5859 5859 5859 5859 5859 5860 5860 5860
5840 5843 5845 5846 5847 5849 5851 5853 5854 5855 5856 5857 5857 5858 5858 5858 5858 5858 5858 5858 5857 5857 5857 5857 5857 5856 5856 5856 5856 5855 5855 5855 5856 5856 5856 5856 5857 5857 5857 5857 5857 5857 5857 5857 5857 5857 5857 5857 5857
5835 5838 5840 5842 5843 5844 5846 5848 5849 5850 5851 5852 5852 5853 5853 5853 5853 5853 5853 5853 5853 5853 5853 5853 5852 5852 5852 5852 5852 5852 5852 5852 5853 5853 5853 5854 5854 5854 5854 5854 5854 5854 5854 5854 5854 5854 5854 5854 5854
5831 5833 5835 5836 5839 5840 5842 5844 5845 5845 5846 5847 5847 5847 5847 5847 5847 5848 5848 5848 5848 5848 5848 5848 5848 5848 5848 5848 5848 5848 5848 5849 5849 5850 5850 5850 5850 5850 5850 5851 5851 5851 5851 5851 5851 5851 5851 5851 5851
5826 5828 5830 5832 5833 5835 5837 5839 5841 5840 5841 5842 5842 5842 5842 5842 5842 5842 5842 5843 5843 5844 5844 5844 5844 5844 5844 5844 5844 5844 5844 5845 5846 5846 5846 5847 5847 5847 5847 5847 5847 5847 5847 5847 5847 5847 5848 5848 5847
5820 5823 5825 5827 5829 5830 5832 5834 5836 5835 5836 5837 5837 5837 5837 5836 5837 5837 5837 5838 5838 5838 5839 5839 5839 5839 5839 5839 5839 5840 5840 5841 5842 5842 5843 5843 5843 5843 5843 5844 5844 5844 5844 5844 5844 5844 5844 5844 5843
5816 5819 5822 5823 5825 5826 5827 5828 5830 5831 5831 5832 5832 5832 5832 5831 5832 5832 5832 5833 5833 5833 5834 5834 5834 5834 5835 5835 5835 5835 5836 5836 5837 5838 5838 5839 5839 5839 5840 5840 5840 5840 5840 5840 5840 5840 5840 5840 5839
5811 5814 5818 5820 5822 5823 5822 5822 5824 5825 5826 5826 5826 5827 5827 5827 5827 5827 5828 5828 5828 5828 5829 5829 5829 5830 5830 5830 5831 5831 5831 5832 5833 5833 5834 5834 5835 5835 5835 5836 5836 5836 5836 5836 5836 5836 5836 5835 5835
5805 5808 5811 5814 5815 5816 5817 5818 5818 5819 5820 5821 5821 5822 5822 5822 5822 5823 5823 5823 5824 5824 5824 5824 5824 5825 5825 5825 5826 5826 5827 5827 5828 5828 5829 5829 5830 5831 5831 5831 5831 5831 5831 5832 5832 5831 5831 5831 5830
5800 5803 5805 5807 5809 5811 5812 5813 5814 5814 5815 5816 5816 5817 5818 5818 5818 5818 5818 5818 5819 5819 5819 5819 5820 5820 5820 5820 5821 5821 5822 5822 5823 5823 5824 5825 5825 5826 5826 5826 5827 5827 5827 5827 5827 5827 5826 5826 5826
5795 5797 5799 5801 5804 5806 5808 5810 5808 5808 5809 5810 5811 5812 5812 5813 5813 5813 5813 5814 5814 5814 5814 5815 5815 5815 5815 5816 5816 5817 5817 5817 5818 5819 5820 5820 5821 5821 5821 5822 5822 5822 5822 5822 5822 5821 5821 5821 5821
5789 5791 5794 5796 5797 5799 5802 5805 5801 5802 5803 5804 5805 5806 5807 5807 5808 5808 5809 5809 5809 5810 5810 5810 5810 5811 5811 5811 5812 5812 5812 5813 5813 5814 5815 5815 5816 5816 5816 5816 5816 5817 5817 5817 5816 5816 5816 5816 5815
Wind_Speed
4 3 2 1 1 2 0 1 2 3 3 3 4 5 5 6 7 7 7 7 7 7 7 7 7 6 5 4 4 4 4 4 4 4 4 4 4 4 4 3 3 3 2 3 3 3 4 4 4
5 4 3 2 0 1 3 2 3 3 3 3 4 5 5 6 6 7 7 7 7 7 7 6 6 6 6 5 4 4 4 4 4 4 4 3 3 3 3 3 2 2 2 2 2 3 3 4 3
7 6 4 3 3 4 5 3 4 3 3 3 4 5 5 6 7 7 6 6 6 7 7 6 6 6 6 5 5 4 4 4 4 4 3 2 2 3 2 3 2 2 2 2 2 2 3 3 4
8 7 6 5 6 6 5 5 4 4 3 3 4 4 5 6 7 7 7 6 6 6 6 5 5 5 5 5 4 4 4 3 3 3 2 2 2 2 2 2 1 2 2 2 2 2 3 3 3
10 8 7 7 8 7 6 5 5 4 3 4 4 4 5 6 7 7 7 7 6 6 6 5 5 5 5 4 4 3 3 3 2 2 2 1 1 1 1 1 1 1 2 2 2 2 2 3 3
11 10 9 10 10 9 8 7 6 5 5 5 4 5 5 6 7 7 7 7 6 6 5 4 4 4 4 4 3 3 3 2 1 1 2 1 1 1 0 0 1 1 1 2 2 2 2 3 4
13 12 12 12 12 11 9 8 7 6 6 6 5 5 5 5 6 7 7 7 7 6 5 4 4 4 4 4 3 2 2 2 2 1 1 1 0 1 0 1 1 2 2 2 3 3 3 3 4
14 14 13 13 13 12 11 10 9 7 7 7 6 6 6 6 6 6 7 7 7 7 6 5 5 5 4 4 3 2 2 2 2 2 1 1 1 1 1 2 2 2 2 3 4 4 3 3 4
16 15 14 14 14 14 12 11 10 8 8 8 7 7 7 6 7 7 7 7 7 7 6 6 6 6 5 4 4 3 3 3 2 2 2 2 2 2 2 2 3 3 3 3 3 3 4 4 4
17 17 16 16 16 15 14 12 11 10 9 9 9 9 7 7 7 7 7 8 7 6 6 7 6 6 6 5 5 4 4 4 3 3 3 3 3 3 4 3 3 3 3 3 3 3 3 3 4
18 18 18 18 17 16 15 14 13 12 11 11 11 10 9 8 8 8 8 9 8 7 7 7 8 7 6 5 5 5 5 4 4 4 4 4 4 4 5 3 4 3 3 3 3 4 4 4 4
19 19 19 19 18 17 16 16 15 14 13 12 12 11 10 9 9 9 9 10 9 9 9 8 8 8 7 6 6 6 6 5 5 5 5 4 5 4 5 5 4 4 4 4 4 4 4 5 4
20 19 20 19 19 18 17 17 17 16 15 14 14 13 12 11 12 11 11 11 11 10 10 10 9 8 7 7 7 7 7 6 6 7 6 5 5 5 5 5 5 5 4 4 4 5 5 5 5
21 21 20 20 19 19 18 18 18 17 17 16 15 15 14 14 14 13 13 13 12 11 11 10 10 9 9 8 8 8 8 8 7 8 7 6 5 6 6 6 6 5 5 4 5 5 6 5 6
21 21 21 21 20 20 19 19 18 18 18 18 17 16 16 16 15 15 14 14 13 12 12 11 11 10 9 9 9 9 9 9 9 8 7 7 7 5 5 6 5 5 5 5 5 5 5 5 6
22 21 21 22 22 21 21 19 20 19 19 19 18 17 17 17 16 16 15 14 14 13 12 12 12 11 11 10 10 10 10 9 9 9 8 7 7 6 6 6 6 6 5 5 5 5 6 6 7
22 22 21 22 22 22 22 21 21 20 19 19 19 18 18 18 17 16 16 15 14 13 12 12 12 11 11 11 11 11 11 11 10 10 9 9 8 8 8 7 7 7 6 7 6 6 7 7 8
21 21 21 21 22 22 22 22 21 20 20 19 19 19 19 18 17 17 16 15 15 14 13 13 12 12 12 12 12 12 12 11 11 10 10 10 10 9 9 9 9 9 9 8 8 8 8 8 9
22 20 20 21 21 21 22 21 21 21 20 20 20 20 19 19 18 17 16 16 15 15 14 14 14 14 13 13 13 12 12 12 11 11 11 12 12 11 11 11 11 10 10 10 9 9 9 9 10
21 21 20 20 21 21 21 21 21 21 21 21 20 19 19 19 18 18 18 17 16 16 16 16 16 15 15 14 14 13 13 13 13 13 13 13 13 12 12 12 12 11 12 12 11 10 10 11 11
21 20 20 20 20 21 21 21 20 20 21 21 20 20 20 20 19 18 18 18 18 18 18 17 17 17 16 15 14 14 14 14 14 14 14 13 13 13 13 13 13 13 13 13 13 12 11 12 13
21 21 21 21 20 20 21 19 20 20 20 20 20 20 19 20 20 19 19 18 18 18 17 17 17 17 17 17 16 16 15 16 16 15 14 14 14 15 14 14 14 14 14 14 13 13 13 13 13
22 22 22 22 21 22 21 20 19 20 20 20 20 19 19 20 20 20 19 19 19 18 18 17 17 17 18 17 17 17 16 16 17 16 16 16 16 15 15 15 15 15 15 15 15 14 14 14 14
23 22 22 21 21 22 21 20 19 20 19 19 19 19 19 19 19 19 19 19 18 18 18 18 17 17 18 18 18 18 18 18 18 17 17 17 17 16 16 16 16 16 15 16 16 16 16 16 16
22 21 20 20 21 21 21 22 21 19 19 19 19 19 19 19 18 18 17 17 17 18 18 18 18 19 19 19 19 18 18 18 18 18 17 17 17 17 17 17 17 17 17 16 17 17 17 17 17
22 21 21 20 19 19 21 22 22 20 20 19 19 19 18 18 18 18 18 18 17 18 18 18 19 19 20 20 20 19 19 18 19 19 18 18 18 18 17 18 18 18 18 18 18 17 18 17 17
22 22 21 21 21 20 21 22 22 20 19 19 19 19 18 18 18 18 18 18 18 17 18 18 19 19 20 20 20 19 18 19 19 19 19 19 18 18 18 18 18 18 19 19 19 18 18 18 17
23 22 23 22 21 20 21 21 20 20 19 19 19 19 19 19 19 19 19 18 18 18 18 19 18 19 19 19 19 19 19 19 19 19 19 19 19 19 19 19 19 19 20 20 20 19 19 18 17
22 23 23 23 23 21 20 19 21 21 20 19 20 20 19 19 20 20 20 19 18 18 18 18 18 18 18 18 18 19 19 20 20 20 20 20 20 20 20 20 20 20 20 20 20 19 19 19 19
22 23 23 24 24 23 20 20 22 22 21 20 20 21 21 21 20 20 20 20 19 19 19 18 18 18 17 17 18 18 19 20 21 21 21 21 21 21 22 22 22 22 22 21 21 21 21 21 21
Wind_Direction
224 222 217 212 38 38 342 330 349 355 5 18 25 29 34 27 22 19 19 21 22 20 16 18 22 30 34 35 47 58 73 83 90 98 104 104 100 96 98 106 109 120 122 111 116 122 126 133 134
227 228 228 227 167 255 284 299 315 337 352 2 12 15 18 14 13 15 14 15 16 14 12 16 21 30 35 37 45 55 65 78 89 98 99 100 96 96 99 106 120 138 131 124 128 129 138 148 149
229 231 234 237 222 226 251 277 302 316 332 347 359 6 10 9 9 5 2 5 8 6 6 12 22 28 29 36 51 56 64 74 84 92 89 90 91 86 91 104 112 128 126 124 138 142 163 164 165
237 236 236 238 241 243 252 270 290 303 319 327 337 350 358 359 360 357 355 355 356 357 1 10 18 26 29 32 48 56 60 65 75 79 74 72 80 81 91 113 130 137 148 147 152 156 174 179 174
240 239 240 243 247 251 258 269 277 288 305 314 321 337 346 351 352 347 344 347 348 350 355 6 11 16 21 28 41 50 50 53 66 62 60 73 80 82 74 102 159 139 158 164 162 176 178 193 195
237 237 237 240 250 254 260 265 270 276 288 298 308 322 337 345 346 342 341 341 338 342 346 353 359 358 3 8 13 21 22 33 44 39 53 46 61 22 82 154 199 200 189 199 196 195 211 199 202
235 234 233 240 249 252 255 262 269 271 279 288 295 305 319 334 343 341 340 340 336 334 335 337 339 340 342 342 341 342 351 1 2 353 13 16 330 324 237 209 225 222 223 219 223 221 225 221 207
238 238 238 243 248 250 252 257 262 266 274 280 284 294 308 325 335 339 336 334 331 326 326 329 327 323 318 319 315 314 325 328 329 338 329 314 303 275 233 223 237 222 232 229 230 226 224 227 219
239 236 238 241 244 248 252 253 257 263 269 272 278 286 295 309 319 328 329 323 321 319 321 324 320 315 310 309 301 292 298 307 311 304 302 294 279 259 238 243 248 231 237 242 247 243 225 223 226
239 237 238 241 242 246 250 253 256 261 268 271 275 279 284 294 303 313 318 317 315 316 317 318 314 310 302 300 297 287 286 292 294 288 287 286 271 257 245 257 238 239 239 247 248 246 232 223 220
241 240 241 243 242 245 248 252 256 261 268 269 272 275 280 284 292 299 305 309 306 308 308 310 312 308 300 295 293 286 283 286 288 284 282 286 281 269 245 250 248 241 245 257 253 251 242 237 227
242 242 242 241 240 242 245 251 255 259 264 267 269 272 276 278 287 291 296 300 297 296 299 302 304 303 300 294 288 286 282 282 283 280 274 274 276 259 244 249 249 253 252 255 253 248 246 237 225
242 242 242 240 241 242 245 250 253 257 261 265 269 271 274 279 283 286 291 294 291 289 290 293 294 293 293 289 282 279 279 270 271 269 268 266 264 256 248 247 253 263 256 257 252 244 240 236 235
241 242 242 240 241 243 245 248 251 254 257 261 265 268 272 278 280 284 289 291 287 283 283 284 286 283 281 281 280 277 270 268 262 256 258 254 252 246 249 254 259 260 257 255 247 239 238 236 241
240 241 242 242 242 242 245 248 252 254 256 259 262 268 272 276 277 282 287 288 285 280 277 279 279 278 275 273 273 274 270 266 262 256 254 255 247 248 246 251 247 250 258 263 263 249 242 241 245
239 240 242 245 245 244 245 248 251 253 257 260 262 267 271 273 275 278 279 282 281 280 275 274 273 272 271 270 270 269 268 263 261 259 259 260 260 260 256 261 257 259 264 270 267 252 250 250 252
239 239 241 245 246 246 245 246 249 253 255 258 261 265 269 270 274 276 276 278 277 278 275 271 269 268 269 271 270 265 266 262 261 259 256 260 266 267 260 264 260 259 260 262 261 256 258 261 261
238 239 241 245 246 246 246 246 249 253 255 258 262 265 267 267 271 274 275 274 276 276 274 270 267 266 267 270 272 269 265 262 261 261 258 260 263 265 261 262 261 259 257 258 260 261 262 263 264
237 239 242 244 245 247 247 247 249 252 255 259 263 265 264 265 267 269 273 273 276 276 274 268 266 265 266 268 270 270 263 261 262 261 258 257 259 262 260 261 260 261 257 256 260 263 266 265 265
238 239 241 244 245 247 249 249 249 253 254 258 262 264 263 262 267 269 269 271 274 275 272 268 265 265 265 265 266 265 262 260 260 259 259 261 260 262 261 262 261 261 260 257 263 267 267 266 265
237 239 240 243 246 248 249 251 252 253 255 258 260 260 262 263 264 267 266 268 270 272 272 271 268 265 264 264 263 261 258 258 258 259 260 260 260 260 264 262 263 263 262 261 263 267 269 269 265
237 239 241 244 247 250 250 253 253 253 255 257 260 262 263 264 264 263 263 267 266 267 269 270 267 264 263 262 263 263 259 255 256 259 260 261 263 262 263 262 262 263 263 264 264 267 271 272 269
235 238 242 245 248 250 253 254 258 254 253 256 260 263 264 265 263 262 263 265 264 264 265 268 267 265 263 262 261 260 258 255 256 260 260 261 263 262 262 262 260 261 262 263 265 269 271 272 271
237 240 243 246 249 252 253 254 257 256 255 257 260 263 264 263 260 260 262 264 265 262 262 263 263 264 263 261 259 258 257 255 255 259 261 261 261 261 263 262 259 260 262 264 265 267 270 272 271
237 239 243 247 250 254 254 255 256 255 258 259 257 260 264 262 261 261 263 266 267 262 263 263 262 263 262 260 260 258 256 255 253 257 260 260 260 260 260 261 258 259 263 267 266 266 267 268 268
238 238 240 243 248 254 256 257 257 255 255 257 257 259 263 262 261 261 263 266 266 263 263 262 262 263 263 262 260 258 255 254 254 257 258 258 258 259 260 262 262 261 263 265 268 266 268 268 267
238 239 240 245 250 252 255 257 260 256 253 254 256 258 261 262 262 263 264 266 264 262 263 262 259 260 261 261 258 256 256 254 254 256 255 256 257 260 262 264 264 263 263 265 267 267 267 269 270
239 240 241 243 247 253 259 261 261 255 253 254 255 257 259 260 261 261 262 264 263 262 263 262 261 260 258 257 257 255 254 253 252 254 255 255 256 259 260 261 261 264 264 265 268 269 269 271 273
240 239 241 243 245 250 258 262 259 260 257 256 255 255 257 258 260 260 260 261 262 264 263 260 262 260 258 258 258 256 256 255 253 253 255 257 256 258 260 261 262 263 265 265 266 268 270 273 274
242 242 242 244 246 250 256 262 260 260 257 257 256 254 256 257 258 257 258 259 260 262 262 262 263 264 262 261 261 259 260 259 256 253 254 258 259 260 261 263 263 264 265 265 265 267 270 273 275